Weather reports worldwide

Advertisment
List/Sylt, Germany (10020): temperature & dewpoint: 10.08.2018 13:00:00 - 16.08.2018 13:00:00 (CEST)List/Sylt, Germany (10020): temperature 5cm & temperature -5cm: 10.08.2018 13:00:00 - 16.08.2018 13:00:00 (CEST)List/Sylt, Germany (10020): temperature -20cm: 10.08.2018 13:00:00 - 16.08.2018 13:00:00 (CEST)List/Sylt, Germany (10020): wind speed & gusts: 10.08.2018 13:00:00 - 16.08.2018 13:00:00 (CEST)List/Sylt, Germany (10020): wind direction: 10.08.2018 13:00:00 - 16.08.2018 13:00:00 (CEST)List/Sylt, Germany (10020): reduced air pressure: 10.08.2018 13:00:00 - 16.08.2018 13:00:00 (CEST)List/Sylt, Germany (10020): visibility: 10.08.2018 13:00:00 - 16.08.2018 13:00:00 (CEST)List/Sylt, Germany (10020): sunshine duration: 10.08.2018 13:00:00 - 16.08.2018 13:00:00 (CEST)List/Sylt, Germany (10020): precipitation: 10.08.2018 13:00:00 - 16.08.2018 13:00:00 (CEST)
Date & Time tt [°C] td [°C] tt 5cm [°C] tt -5cm [°C] tt -20cm [°C] ff [km/h] ff [kn] fx [km/h] fx [kn] dd ppp [hPa] vv [km] sd [min] rr [mm]
16.08.2018 13:00:00 19,8 15,5 22,0 20,3 18,7 36 20 51 28 SSW 1013,2 7 3 0,0
16.08.2018 12:00:00 19,6 15,8 22,1 20,0 18,6 38 21 48 26 S 1013,0 5 30 0,0
16.08.2018 11:00:00 20,3 16,0 23,5 19,3 18,6 33 18 45 24 S 1013,2 10 31 0,0
16.08.2018 10:00:00 19,9 15,9 21,3 18,8 18,6 34 18 46 25 S 1013,4 13 1 0,0
16.08.2018 09:00:00 19,6 15,7 20,0 18,6 18,7 34 18 44 24 S 1013,6 8 0 0,0
16.08.2018 08:00:00 19,6 16,2 19,5 18,5 18,7 34 19 46 25 SSW 1014,0 10 0 0,0
16.08.2018 07:00:00 19,3 16,4 19,0 18,5 18,8 29 16 42 23 SSW 1014,2 10 0 0,0
16.08.2018 06:00:00 19,3 16,5 18,9 18,5 18,9 28 15 38 21 S 1014,3 11 0 0,0
16.08.2018 05:00:00 19,2 16,0 18,7 18,6 18,9 24 13 34 18 SSW 1014,6 15 0 0,0
16.08.2018 04:00:00 19,2 15,8 18,7 18,6 19,0 23 12 32 18 SSW 1014,9 20 0 0,0
16.08.2018 03:00:00 19,2 16,1 18,1 18,9 19,1 21 12 35 19 SSW 1015,4 18 0 0,0
16.08.2018 02:00:00 19,3 16,0 18,8 19,0 19,1 25 13 39 21 SSW 1015,8 22 0 0,0
16.08.2018 01:00:00 19,5 16,1 19,1 19,2 19,2 27 15 36 19 SW 1016,0 21 0 0,0
16.08.2018 00:00:00 19,8 17,0 19,3 19,4 19,2 19 10 33 18 SSW 1016,1 17 0 0,0
15.08.2018 23:00:00 19,9 17,2 19,5 19,6 19,3 19 11 33 18 SSW 1016,2 17 0 0,0
15.08.2018 22:00:00 19,9 16,7 19,5 19,8 19,3 18 10 27 14 SW 1016,3 22 0 0,0
15.08.2018 21:00:00 19,8 16,6 19,4 20,2 19,3 17 9 27 15 SW 1016,4 24 0 0,0
15.08.2018 20:00:00 20,0 16,2 19,8 20,6 19,3 19 10 29 16 SW 1016,2 23 35 0,0
15.08.2018 19:00:00 19,8 15,6 20,5 20,9 19,2 20 11 34 18 WSW 1016,4 38 0 0,0
15.08.2018 18:00:00 19,8 15,8 20,4 21,3 19,1 24 13 38 21 WSW 1016,6 44 0 0,0
15.08.2018 17:00:00 20,3 16,1 22,2 21,7 18,9 25 13 40 21 WSW 1016,3 17 0 0,0
15.08.2018 16:00:00 19,8 15,7 21,0 22,0 18,7 27 15 37 20 WSW 1016,3 42 17 0,0
15.08.2018 15:00:00 20,5 15,4 23,3 21,7 18,6 25 14 39 21 W 1016,2 11 43 0,0
15.08.2018 14:00:00 20,5 15,7 24,6 20,6 18,4 26 14 41 22 WSW 1016,0 10 9 0,0
15.08.2018 13:00:00 19,9 15,8 22,1 20,2 18,4 28 15 39 21 WSW 1015,7 11 7 0,0
15.08.2018 12:00:00 20,3 15,3 22,7 19,6 18,3 28 15 39 21 WSW 1015,5 10 12 0,0
15.08.2018 11:00:00 20,0 16,6 22,0 19,0 18,3 26 14 40 22 WSW 1015,3 15 5 0,0
15.08.2018 10:00:00 19,4 16,6 20,1 18,5 18,3 29 16 42 23 WSW 1014,8 17 15 0,0
15.08.2018 09:00:00 19,1 16,3 19,8 17,9 18,4 23 12 37 20 WSW 1014,3 33 0 0,0
15.08.2018 08:00:00 18,6 15,7 18,6 17,7 18,5 23 13 34 18 WSW 1014,2 23 0 0,0
15.08.2018 07:00:00 18,3 15,4 18,2 17,6 18,5 23 12 35 19 WSW 1013,9 41 4 0,0
15.08.2018 06:00:00 17,7 14,5 17,1 17,7 18,6 21 11 34 18 W 1013,9 53 0 0,0
15.08.2018 05:00:00 17,4 14,6 16,5 17,8 18,8 18 10 27 15 W 1013,7 66 0 0,0
15.08.2018 04:00:00 16,5 15,1 15,7 17,9 18,9 22 12 37 20 W 1013,9 24 0 0,0
15.08.2018 03:00:00 17,9 14,0 17,4 17,9 19,0 16 9 30 16 WSW 1013,9 50 0 0,0
15.08.2018 02:00:00 17,7 13,0 16,9 18,1 19,1 19 10 27 15 W 1014,0 54 0 0,0
15.08.2018 01:00:00 17,6 12,5 16,7 18,4 19,3 22 12 36 19 WNW 1013,8 67 0 0,0
15.08.2018 00:00:00 17,5 12,2 16,8 18,8 19,4 27 15 42 23 WNW 1013,5 53 0 0,0
14.08.2018 23:00:00 17,9 13,9 17,4 19,3 19,5 29 16 44 24 WNW 1013,1 47 0 0,0
14.08.2018 22:00:00 18,0 14,8 17,8 19,8 19,5 34 18 48 26 NW 1012,6 42 0 0,0
14.08.2018 21:00:00 17,7 15,8 17,7 20,5 19,5 37 20 54 29 NW 1011,8 39 0 0,0
14.08.2018 20:00:00 18,4 16,2 18,6 21,3 19,4 39 21 50 27 WNW 1011,0 42 2 0,0
14.08.2018 19:00:00 18,9 16,2 19,4 22,1 19,2 32 18 40 21 WNW 1010,7 22 5 0,0
14.08.2018 18:00:00 20,2 15,6 21,7 22,7 19,0 19 10 29 16 WNW 1010,4 33 10 0,0
14.08.2018 17:00:00 20,3 15,8 23,9 23,0 18,7 22 12 31 17 WNW 1010,2 9 50 0,0
14.08.2018 16:00:00 20,5 15,5 24,9 22,7 18,5 21 11 32 18 WNW 1009,7 5 55 0,0
14.08.2018 15:00:00 20,2 15,3 24,1 22,1 18,2 25 14 33 18 WNW 1009,3 6 59 0,0
14.08.2018 14:00:00 20,4 15,1 25,1 21,1 18,0 20 11 31 17 WNW 1008,7 10 60 0,0
14.08.2018 13:00:00 19,8 15,2 24,2 20,2 17,9 22 12 28 15 NW 1008,1 11 35 0,0
14.08.2018 12:00:00 18,9 15,0 20,0 19,3 17,8 18 10 26 14 NNW 1007,5 63 22 0,0
14.08.2018 11:00:00 18,6 16,1 21,2 18,5 17,8 17 9 26 14 NW 1007,0 17 11 0,0
14.08.2018 10:00:00 18,1 16,2 18,4 18,0 17,8 18 10 27 15 NNW 1006,5 8 1 0,0
14.08.2018 09:00:00 18,3 16,4 18,0 17,7 17,8 21 11 25 14 NNW 1005,8 9 0 0,0
14.08.2018 08:00:00 18,6 16,0 18,6 17,5 17,8 19 11 29 16 NW 1005,2 12 8 0,0
14.08.2018 07:00:00 18,0 15,3 16,8 17,5 17,9 22 12 28 15 NW 1004,7 15 0 0,0
14.08.2018 06:00:00 18,2 16,2 17,0 17,5 17,9 20 11 27 15 WNW 1004,2 9 0 0,0
14.08.2018 05:00:00 18,2 16,1 17,0 17,6 17,9 19 11 23 12 WNW 1004,0 12 0 0,2
14.08.2018 04:00:00 18,2 16,4 17,2 17,6 18,0 13 7 19 10 W 1003,9 6 0 0,1
14.08.2018 03:00:00 18,1 17,0 17,0 17,6 18,0 10 5 14 7 SW 1004,1 7 0 0,0
14.08.2018 02:00:00 18,1 16,5 16,9 17,7 18,0 10 6 16 8 SSW 1004,1 3,9 0 0,0
14.08.2018 01:00:00 17,7 16,5 16,8 17,8 18,1 15 8 24 13 SSW 1004,0 3,2 0 0,1
14.08.2018 00:00:00 17,7 16,6 16,9 18,0 18,1 18 10 30 16 SSE 1004,1 2,6 0 0,4
13.08.2018 23:00:00 18,2 15,7 16,9 18,1 18,1 17 9 25 13 E 1003,9 10 0 0,0
13.08.2018 22:00:00 18,4 16,3 17,5 18,3 18,1 16 9 24 13 ENE 1003,9 15 0 0,0
13.08.2018 21:00:00 18,9 17,0 18,0 18,5 18,1 16 9 26 14 ENE 1004,1 10 0 0,0
13.08.2018 20:00:00 19,2 15,5 17,8 18,6 18,1 17 9 26 14 ENE 1004,3 20 0 0,0
13.08.2018 19:00:00 18,7 15,3 17,6 18,7 18,0 16 9 27 14 ENE 1004,5 20 0 0,0
13.08.2018 18:00:00 18,2 13,7 16,5 18,9 18,0 16 8 21 11 E 1005,1 30 0 0,4
13.08.2018 17:00:00 18,6 16,0 17,5 19,0 17,9 15 8 24 13 E 1005,6 6 0 0,2
13.08.2018 16:00:00 18,8 16,0 17,8 19,1 17,8 16 9 29 15 E 1005,5 13 0 0,1
13.08.2018 15:00:00 19,3 15,7 17,8 19,2 17,7 21 11 29 15 SE 1006,1 13 0 0,1
13.08.2018 14:00:00 19,7 16,8 19,2 19,2 17,6 17 9 24 13 ESE 1005,9 13 0 0,0
13.08.2018 13:00:00 19,5 16,5 19,1 18,8 17,5 17 9 23 12 E 1005,8 12 0 0,0
13.08.2018 12:00:00 19,3 16,5 19,2 18,5 17,4 15 8 20 11 E 1006,1 13 0 0,0
13.08.2018 11:00:00 18,5 15,9 18,5 18,1 17,4 15 8 20 11 E 1006,5 10 0 0,0
13.08.2018 10:00:00 18,3 15,8 18,8 17,5 17,4 12 6 26 14 ESE 1006,7 10 0 0,1
13.08.2018 09:00:00 18,0 15,0 16,8 17,2 17,4 22 12 34 19 SSE 1006,8 9 0 0,0
13.08.2018 08:00:00 18,3 15,9 17,3 17,1 17,4 20 11 27 14 SSE 1006,5 11 0 0,0
13.08.2018 07:00:00 18,2 17,0 17,4 17,0 17,4 15 8 22 12 S 1006,7 4,9 0 0,0
13.08.2018 06:00:00 18,3 17,3 17,4 16,9 17,4 15 8 21 12 SSE 1006,9 4,0 0 0,0
13.08.2018 05:00:00 18,5 16,6 17,3 16,9 17,4 14 7 21 11 SSE 1007,3 31 0 0,0
13.08.2018 04:00:00 18,3 16,4 17,1 16,8 17,4 16 8 20 11 SSE 1007,7 22 0 0,0
13.08.2018 03:00:00 18,4 16,7 17,0 16,8 17,4 12 6 15 8 SSE 1008,1 18 0 0,0
13.08.2018 02:00:00 18,1 16,5 16,1 16,8 17,4 6 4 14 7 SSW 1008,6 17 0 0,0
13.08.2018 01:00:00 18,0 16,0 16,5 16,9 17,4 9 5 19 10 W 1008,7 19 0 0,1
13.08.2018 00:00:00 17,9 16,5 16,8 16,9 17,4 13 7 28 15 SW 1009,2 16 0 0,1
12.08.2018 23:00:00 17,8 15,9 16,7 16,9 17,4 18 10 26 14 WSW 1009,4 12 0 0,2
12.08.2018 22:00:00 17,9 16,6 17,0 16,8 17,4 20 11 45 24 WSW 1009,5 11 0 0,6
12.08.2018 21:00:00 17,2 14,9 15,9 16,8 17,4 26 14 46 25 WSW 1009,5 11 0 0,8
12.08.2018 20:00:00 17,7 15,7 16,6 16,8 17,5 27 15 45 24 WSW 1009,6 15 0 1,3
12.08.2018 19:00:00 16,7 15,8 16,2 16,8 17,5 27 15 41 22 SSE 1010,0 3,2 0 1,4
12.08.2018 18:00:00 15,7 15,0 15,5 16,7 17,6 31 17 46 25 SSE 1010,6 3,3 0 1,0
12.08.2018 17:00:00 15,2 14,5 15,1 16,8 17,7 33 18 48 26 SSE 1011,6 3,0 0 3,7
12.08.2018 16:00:00 14,1 13,0 13,7 17,2 17,7 30 16 42 23 SSE 1012,7 3,2 0 1,8
12.08.2018 15:00:00 14,7 11,6 13,8 17,3 17,7 32 17 41 22 S 1013,5 7 0 0,9
12.08.2018 14:00:00 15,4 12,1 14,3 17,3 17,7 25 13 37 20 SSW 1014,0 7 0 0,1
12.08.2018 13:00:00 15,7 12,2 14,6 17,3 17,7 27 15 38 20 SSW 1014,4 14 0 3,8
12.08.2018 12:00:00 17,2 11,9 17,3 17,5 17,7 18 10 29 16 SSW 1014,8 37 0 0,0
12.08.2018 11:00:00 17,9 12,1 19,4 17,1 17,7 15 8 29 16 SW 1014,8 54 0 0,0
12.08.2018 10:00:00 17,8 10,4 18,6 16,8 17,8 17 9 29 15 WSW 1015,1 48 0 0,0
12.08.2018 09:00:00 17,5 9,0 18,4 16,4 17,8 21 11 31 17 WSW 1015,1 25 0 0,0
12.08.2018 08:00:00 16,8 10,0 16,7 16,2 17,9 21 11 30 16 SW 1015,4 70 0 0,0
12.08.2018 07:00:00 16,8 11,3 16,4 16,1 18,0 22 12 35 19 WSW 1015,4 70 0 0,0
12.08.2018 06:00:00 16,3 11,2 15,4 16,1 18,1 17 9 25 14 WSW 1015,5 57 0 0,0
12.08.2018 05:00:00 16,5 11,0 15,7 16,1 18,2 18 10 27 14 WSW 1016,0 70 0 0,0
12.08.2018 04:00:00 16,2 11,3 15,3 16,1 18,3 16 9 29 16 WSW 1016,5 64 0 0,0
12.08.2018 03:00:00 16,3 10,0 15,4 16,1 18,5 16 8 31 17 W 1016,7 68 0 0,0
12.08.2018 02:00:00 16,3 10,0 15,2 16,2 18,6 22 12 30 16 W 1017,2 66 0 0,0
12.08.2018 01:00:00 16,0 9,7 14,6 16,4 18,7 21 11 40 22 WNW 1017,5 70 0 0,0
12.08.2018 00:00:00 16,5 9,4 15,4 16,7 18,8 29 16 44 24 WNW 1017,8 66 0 0,0
11.08.2018 23:00:00 16,6 9,9 15,4 16,9 19,0 31 17 47 25 W 1017,9 56 0 0,0
11.08.2018 22:00:00 16,5 9,9 15,4 17,3 19,0 31 17 52 28 W 1017,8 55 0 0,0
11.08.2018 21:00:00 16,9 8,9 16,0 17,8 19,1 36 20 50 27 W 1017,4 65 29 0,0
11.08.2018 20:00:00 17,1 8,7 16,5 18,3 19,1 36 19 54 29 WNW 1017,2 45 31 0,0
11.08.2018 19:00:00 17,9 9,5 18,9 18,9 19,1 41 22 59 32 WNW 1017,0 10 40 0,0
11.08.2018 18:00:00 17,8 10,7 20,0 19,2 19,0 40 21 58 31 WNW 1016,6 7 50 0,0
11.08.2018 17:00:00 18,3 9,5 21,0 19,2 19,0 43 23 60 33 WNW 1016,3 2,2 45 0,0
11.08.2018 16:00:00 18,3 9,7 20,9 18,9 19,0 45 25 61 33 WNW 1015,8 6 49 0,0
11.08.2018 15:00:00 17,1 10,9 18,0 18,6 19,0 45 24 68 37 WNW 1015,1 2,5 32 0,0
11.08.2018 14:00:00 17,4 10,2 19,0 18,4 19,0 48 26 65 35 WNW 1014,2 2,8 26 0,1
11.08.2018 13:00:00 16,2 11,3 17,5 18,2 19,0 38 21 50 27 W 1013,9 9 5 0,3
11.08.2018 12:00:00 15,8 12,0 16,0 18,1 19,0 40 21 51 27 WNW 1013,6 5 26 0,0
11.08.2018 11:00:00 15,1 12,1 15,7 17,7 19,1 28 15 46 25 WNW 1013,2 8 13 0,1
11.08.2018 10:00:00 14,6 11,0 13,3 17,5 19,2 32 17 58 31 WSW 1013,0 11 1 0,1
11.08.2018 09:00:00 14,6 11,8 14,1 17,2 19,3 28 15 40 22 SW 1012,8 12 35 0,0
11.08.2018 08:00:00 15,0 9,8 13,5 17,1 19,4 29 16 47 25 SW 1012,8 54 20 0,0
11.08.2018 07:00:00 15,9 11,7 14,1 17,1 19,6 35 19 50 27 SW 1012,4 70 0 0,0
11.08.2018 06:00:00 15,4 12,3 13,9 17,2 19,7 35 19 52 28 S 1012,5 38 0 0,1
11.08.2018 05:00:00 15,6 11,9 13,8 17,4 19,8 35 19 59 32 SSW 1012,9 49 0 0,5
11.08.2018 04:00:00 15,1 12,5 13,5 17,6 20,0 37 20 58 31 SW 1013,8 4,4 0 0,3
11.08.2018 03:00:00 16,8 12,6 14,8 17,8 20,2 39 21 51 28 S 1014,2 38 0 0,0
11.08.2018 02:00:00 15,8 13,7 14,7 18,0 20,5 37 20 67 36 S 1015,5 28 0 6,7
11.08.2018 01:00:00 17,5 13,2 15,4 18,7 20,8 24 13 42 23 SE 1015,7 10 0 0,0
11.08.2018 00:00:00 17,8 12,3 16,6 18,9 20,9 24 13 34 19 S 1016,6 50 0 0,0
10.08.2018 23:00:00 17,0 11,5 15,6 19,2 21,0 19 11 35 19 SSW 1017,1 42 0 0,0
10.08.2018 22:00:00 16,9 11,4 15,2 19,8 21,1 22 12 37 20 SW 1017,5 46 0 0,0
10.08.2018 21:00:00 17,6 10,5 16,9 20,4 21,2 26 14 44 24 SW 1017,6 52 28 0,0
10.08.2018 20:00:00 18,1 10,5 18,1 21,0 21,2 29 16 41 22 SW 1017,7 30 3 0,0
10.08.2018 19:00:00 18,0 10,3 19,5 21,5 21,2 20 11 51 27 W 1018,1 26 29 0,0
10.08.2018 18:00:00 18,3 11,0 20,2 22,1 21,2 36 19 51 28 SW 1017,8 8 54 0,0
10.08.2018 17:00:00 19,2 11,0 23,8 22,1 21,2 36 19 50 27 SSW 1018,0 2,2 56 0,0
10.08.2018 16:00:00 19,5 10,1 22,7 21,6 21,2 36 19 62 34 SW 1017,5 3,7 11 0,0
10.08.2018 15:00:00 18,4 11,0 20,1 21,8 21,2 43 23 63 34 SW 1017,3 4,2 44 0,0
10.08.2018 14:00:00 19,0 12,9 23,7 21,1 21,2 44 24 59 32 SSW 1016,7 4,3 30 0,0
10.08.2018 13:00:00 19,3 10,1 22,8 20,7 21,3 39 21 57 31 WSW 1016,3 7 44 0,0

tt = temperature
td = dewpoint
tt 5cm = temperature 5cm
tt -5cm = temperature -5cm
tt -20cm = temperature -20cm
ff = wind speed
fx = gusts
dd = wind direction
ppp = reduced air pressure
vv = visibility
sd = sunshine duration
rr = precipitation

Next stations